sat.trackr.live / text

‹ back to catalog

DB-WALI-WMU

NORAD 68443 · 2026-067AD

PAYLOAD ACTIVE UNKNOWN

§ Identity

Operator
Country
US
Launch date
2026-03-30
Launch site
AFWTR
Launch vehicle
Mass (kg)
RCS (m²)

External: N2YO · Heavens-Above · Gunter

§ Orbital elements

Epoch: 2026-09-19T02:45:23.575680Z

Period
94.84 min
Inclination
97.4659°
Eccentricity
0.0006384
Mean motion
15.18328641 rev/d
Perigee alt
506.5 km
Apogee alt
515.3 km
Semi-major
6,889.0 km
B*
1.7250e-4
RAAN
219.1591°
Arg perigee
100.4937°
Mean anomaly
259.7016°
Rev number
2,618

§ Raw data

DB-WALI-WMU1 68443U 26067AD  26262.11485620  .00003474  00000+0  17250-3 0  99962 68443  97.4659 219.1591 0006384 100.4937 259.7016 15.18328641 26186

JSON: /api/v1/satellites/68443 · /tle

For live sub-satellite position, see the globe view (requires WebGL).

§ Visibility from observer

Set your observer location to see the next 7 days of passes ≥ 10°. The values pass through the URL so the page stays shareable.

No JS? Fill the form by hand. The geolocation button needs JavaScript.